Overview Statistics Trail Chart Weather Telemetry Raw packets
 

This is the latest recevied weather packets stored in our database for station/object KA1AL. If no packets are shown the sender has not sent any weather packets the latest 10 day(s).

<< 44 45 46 47 48 49 50 >>
Time Temp. Humidity Pressure Rain* Wind** Luminosity Snow
1777390887 13.89° C 55% 1022.6 hPa 0 mm - 682 W/m² -
1777390584 13.33° C 57% 1022.5 hPa 0 mm - 690 W/m² -
1777390280 13.33° C 59% 1022.9 hPa 0 mm - 700 W/m² -
1777389976 13.33° C 60% 1022.8 hPa 0 mm - 707 W/m² -
1777389673 12.22° C 58% 1022.8 hPa 0 mm - 707 W/m² -
1777389370 12.78° C 57% 1022.7 hPa 0 mm - 719 W/m² -
1777389068 12.78° C 58% 1022.9 hPa 0 mm - 716 W/m² -
1777388765 12.22° C 60% 1022.8 hPa 0 mm - 717 W/m² -
1777388462 12.22° C 57% 1023 hPa 0 mm - 721 W/m² -
1777388161 12.22° C 56% 1023.1 hPa 0 mm - 727 W/m² -
1777387857 11.67° C 57% 1022.5 hPa 0 mm - 729 W/m² -
1777387554 12.78° C 56% 1022.8 hPa 0 mm - 711 W/m² -
1777387250 12.22° C 58% 1022.9 hPa 0 mm - 722 W/m² -
1777386945 12.22° C 56% 1022.8 hPa 0 mm - 724 W/m² -
1777386643 11.67° C 56% 1023 hPa 0 mm - 716 W/m² -
1777386339 12.22° C 55% 1022.7 hPa 0 mm - 710 W/m² -
1777386037 11.67° C 55% 1022.7 hPa 0 mm - 702 W/m² -
1777385733 11.67° C 53% 1023 hPa 0 mm - 687 W/m² -
1777385431 11.11° C 53% 1023.1 hPa 0 mm - 688 W/m² -
1777385127 11.67° C 52% 1023.2 hPa 0 mm - 677 W/m² -
1777384823 11.11° C 54% 1023.1 hPa 0 mm - 665 W/m² -
1777384520 11.11° C 54% 1023.1 hPa 0 mm - 652 W/m² -
1777384215 10.56° C 56% 1023.3 hPa 0 mm - 639 W/m² -
1777383911 11.11° C 56% 1023.6 hPa 0 mm - 640 W/m² -
1777383607 10.56° C 60% 1023.3 hPa 0 mm - 628 W/m² -

* Rain latest hour (hover to see other rain measurements)
** Current wind speed in m/s (hover to see current wind gust speed)